Terminal Aerodrome Forecast
Issued by NWS

Home | Current Version | Previous Version | Text Only | Print | Product List | Glossary On
Versions: 1 2 3 4 5 6 7 8 9 10 11 12 13 14 15 16 17 18 19 20 21 22 23 24
000
FTUS46 KSGX 051734
TAFSAN
TAF
KSAN 051734Z 0518/0624 VRB05KT P6SM SCT025 OVC035
     FM051900 20011KT P6SM SCT025 BKN035
     FM060300 VRB05KT P6SM SCT025 BKN050
     FM060600 VRB05KT P6SM -SHRA BKN025 OVC040
     FM061800 22010KT P6SM -SHRA BKN018 OVC035=

USA.gov is the U.S. government's official web portal to all federal, state and local government web resources and services.